[[{"header":{"parameterUnit":"m.s-1","parameterCategory":1,"la1":30.2991,"la2":30.254,"lo1":-89.0895,"lo2":-89.0444,"dy":0.0017,"dx":0.0017,"nx":28,"ny":28,"refTime":"2024-10-12T21:00:00:Z","depth":0,"parameterNumber":2,"parameterNumberName":"U-component_of_WINDS"},"data":[0,0,0,0,0,0,0,0,0,0,0,0,0,0,0,0,0,0,0,0,0,0,0,0,0,0,0,0,0,0,0,0,0,0,0,0,0,0,0,0,0,0,0,0,0,0,0,0,0,0,0,0,0,0,0,0,0,0,-0.7804,-0.7805,0,-0.7821,-0.7821,-0.7821,-0.7789,-0.7788,-0.7787,-0.7786,-0.7802,-0.7804,-0.7805,0,0,0,0,0,0,0,0,0,0,0,0,0,-0.7745,-0.7746,-0.7804,-0.7805,-0.7805,-0.7821,-0.7821,-0.7821,-0.7789,-0.7788,-0.7787,-0.7785,-0.7802,-0.7804,-0.7805,0,0,0,0,0,0,0,0,0,0,0,0,0,-0.7767,-0.7747,-0.7804,-0.7791,-0.779,-0.7821,-0.7821,-0.7821,-0.7789,-0.7788,-0.7786,-0.7785,-0.7801,-0.7803,-0.7806,-0.7851,0,0,-0.7812,-0.7813,0,0,0,0,0,0,0,0,-0.7766,-0.7769,-0.7793,-0.7792,-0.7791,-0.7801,-0.7806,-0.7831,-0.779,-0.779,-0.7786,-0.7784,-0.7803,-0.7805,-0.7812,-0.7852,-0.7852,-0.7812,-0.7814,-0.7815,-0.7815,0,0,0,0,0,0,0,-0.7765,-0.7769,-0.7811,-0.7793,-0.7792,-0.7784,-0.7785,-0.7811,-0.7805,-0.7789,-0.7787,-0.779,-0.7802,-0.781,-0.7812,-0.7853,-0.7812,-0.7814,-0.7816,-0.7816,-0.7932,-0.7934,0,0,0,0,0,0,-0.7765,-0.7767,-0.781,-0.7811,-0.7774,-0.7786,-0.7788,-0.7799,-0.7805,-0.7804,-0.7791,-0.7788,-0.7807,-0.7809,-0.7812,-0.7867,-0.7815,-0.7817,-0.7818,-0.793,-0.7933,-0.7934,0,0,0,0,0,0,-0.7764,-0.7769,-0.781,-0.7789,-0.7793,-0.7789,-0.7802,-0.7801,-0.7808,-0.7806,-0.7805,-0.7799,-0.7806,-0.7809,-0.7842,-0.7867,-0.7818,-0.782,-0.7928,-0.7931,-0.7933,-0.7976,0,0,0,0,0,0,-0.7762,-0.7769,-0.7786,-0.779,-0.7795,-0.7839,-0.7804,-0.7802,-0.7812,-0.7808,-0.7814,-0.7813,-0.7805,-0.7839,-0.7844,-0.7869,-0.7821,-0.7926,-0.7929,-0.7933,-0.7973,-0.798,-0.7986,0,0,0,0,0,-0.776,-0.7797,-0.7787,-0.7792,-0.7816,-0.7841,-0.7844,-0.7833,-0.7814,-0.7831,-0.783,-0.7813,-0.7863,-0.7843,-0.7848,-0.7874,-0.7924,-0.7928,-0.7932,-0.7969,-0.7979,-0.7986,0,0,0,0,0,0,-0.7795,-0.7797,-0.7786,-0.7825,-0.7833,-0.7835,-0.7856,-0.7843,-0.7857,-0.7853,-0.784,-0.7841,-0.7877,-0.7878,-0.7855,-0.7919,-0.7891,-0.7896,-0.7917,-0.7926,-0.7932,-0.7932,-0.7823,0,0,0,0,0,-0.7808,-0.7828,-0.7828,-0.7862,-0.7867,-0.7861,-0.7871,-0.7863,-0.7871,-0.7874,-0.7875,-0.7883,-0.7901,-0.7913,-0.7929,-0.7972,-0.7974,-0.7993,-0.8,-0.8006,-0.8011,-0.8035,-0.8045,-0.7948,-0.7948,-0.7948,0,0,-0.7833,-0.7837,-0.785,-0.7869,-0.7874,-0.7896,-0.7864,-0.7887,-0.7903,-0.7877,-0.7909,-0.791,-0.7918,-0.7957,-0.7974,-0.7959,-0.8038,-0.8011,-0.8016,-0.8018,-0.8041,-0.805,-0.8058,-0.795,-0.795,-0.7949,0,0,-0.7891,-0.7895,-0.7925,-0.7931,-0.794,-0.7936,-0.7943,-0.7948,-0.7948,-0.7979,-0.7961,-0.7979,-0.801,-0.8017,-0.8025,-0.8087,-0.8072,-0.8092,-0.8129,-0.8153,-0.8161,-0.8168,-0.8191,-0.82,-0.8097,-0.8097,-0.8097,0,-0.7922,-0.7953,-0.7942,-0.7967,-0.7977,-0.7955,-0.7985,-0.7992,-0.8005,-0.8013,-0.7996,-0.8035,-0.8039,-0.808,-0.8095,-0.8102,-0.811,-0.8092,-0.8161,-0.8167,-0.8173,-0.8196,-0.8205,-0.81,-0.81,-0.8099,-0.8099,0,-0.7992,-0.8014,-0.8037,-0.8051,-0.8063,-0.8091,-0.8084,-0.8098,-0.8089,-0.8087,-0.812,-0.8124,-0.8141,-0.815,-0.814,-0.819,-0.8181,-0.8163,-0.8134,-0.8185,-0.8206,-0.8215,-0.8104,-0.8103,-0.8102,-0.8101,0,0,-0.8072,-0.8081,-0.809,-0.8097,-0.8105,-0.8122,-0.8149,-0.8167,-0.8179,-0.8189,-0.8213,-0.824,-0.8223,-0.8232,-0.8224,-0.8245,-0.8296,-0.8224,-0.8224,-0.8239,-0.8352,-0.8367,-0.8377,-0.8286,-0.8287,-0.8288,-0.8352,0,-0.8131,-0.8178,-0.8169,-0.8215,-0.8236,-0.8216,-0.824,-0.8248,-0.8247,-0.8265,-0.8264,-0.8284,-0.826,-0.8266,-0.8286,-0.8285,-0.8319,-0.828,-0.8308,-0.8309,-0.8308,-0.8387,-0.8402,-0.8462,-0.836,-0.8361,-0.8362,0,-0.8206,-0.822,-0.8268,-0.8275,-0.8283,-0.8305,-0.8321,-0.8338,-0.8347,-0.8345,-0.8356,-0.8344,-0.8371,-0.8342,-0.8381,-0.8355,-0.8366,-0.8367,-0.8369,-0.8373,-0.834,-0.8394,-0.8481,-0.8491,-0.8375,-0.8374,-0.8373,0,-0.8262,-0.8292,-0.8326,-0.8332,-0.834,-0.8356,-0.836,-0.8368,-0.8379,-0.8393,-0.8401,-0.8418,-0.8427,-0.8441,-0.8434,-0.8413,-0.8475,-0.8444,-0.8475,-0.8475,-0.849,-0.8489,-0.8581,-0.8494,-0.8494,-0.8494,-0.8494,0,-0.8329,-0.836,-0.8351,-0.8372,-0.8407,-0.8396,-0.843,-0.8432,-0.8439,-0.846,-0.8443,-0.8463,-0.8452,-0.8472,-0.8467,-0.8501,-0.8505,-0.8505,-0.8503,-0.8507,-0.8507,-0.8515,-0.8511,-0.8496,-0.8496,-0.8495,-0.8495,0,-0.8397,-0.8393,-0.8428,-0.8433,-0.8435,-0.8461,-0.8465,-0.8485,-0.8483,-0.851,-0.8516,-0.8513,-0.8535,-0.853,-0.8554,-0.855,-0.8594,-0.8586,-0.8591,-0.859,-0.8622,-0.8619,-0.8722,-0.8736,-0.8639,-0.864,-0.8641,0,-0.8441,-0.8465,-0.8473,-0.8486,-0.8492,-0.8513,-0.8525,-0.8515,-0.8529,-0.8542,-0.856,-0.8581,-0.8598,-0.8634,-0.8635,-0.8654,-0.8647,-0.8682,-0.865,-0.8654,-0.865,-0.8649,-0.8652,-0.8689,-0.869,-0.8691,-0.8692,0,-0.852,-0.8517,-0.8535,-0.8553,-0.8568,-0.8582,-0.8594,-0.8605,-0.8597,-0.8613,-0.8636,-0.8649,-0.8674,-0.8696,-0.8713,-0.8718,-0.8704,-0.8702,-0.871,-0.8715,-0.8718,-0.8718,-0.861,-0.87,-0.8699,-0.8698,-0.8698,-0.8697,-0.8579,-0.8599,-0.8609,-0.863,-0.8638,-0.865,-0.8669,-0.867,-0.8689,-0.8709,-0.8703,-0.8729,-0.8739,-0.8761,-0.8768,-0.8789,-0.8776,-0.8788,-0.8791,-0.8795,-0.88,-0.8713,-0.8792,-0.8792,-0.8792,-0.8792,-0.8791,0,-0.8658,-0.8663,-0.8683,-0.8701,-0.8718,-0.8703,-0.8716,-0.8731,-0.8755,-0.8765,-0.8782,-0.881,-0.8831,-0.8833,-0.8853,-0.887,-0.8864,-0.8876,-0.8875,-0.8877,-0.8809,-0.8801,-0.888,-0.888,-0.888,-0.888,-0.888,-0.888,-0.8701,-0.8736,-0.8734,-0.8773,-0.8778,-0.8805,-0.8814,-0.8825,-0.8833,-0.8865,-0.8882,-0.8884,-0.8891,-0.8912,-0.8931,-0.8931,-0.894,-0.8955,-0.8953,-0.889,-0.8881,-0.8873,-0.8865,-0.8956,-0.8956,-0.9019,-0.9019,-0.902]},{"header":{"parameterUnit":"m.s-1","parameterCategory":1,"la1":30.2991,"la2":30.254,"lo1":-89.0895,"lo2":-89.0444,"dy":0.0017,"dx":0.0017,"nx":28,"ny":28,"refTime":"2024-10-12T21:00:00:Z","depth":0,"parameterNumber":3,"parameterNumberName":"V-component_of_WINDS"},"data":[0,0,0,0,0,0,0,0,0,0,0,0,0,0,0,0,0,0,0,0,0,0,0,0,0,0,0,0,0,0,0,0,0,0,0,0,0,0,0,0,0,0,0,0,0,0,0,0,0,0,0,0,0,0,0,0,0,0,0.8926,0.8926,0,0.8929,0.8929,0.8929,0.8928,0.8928,0.8928,0.8928,0.8928,0.8928,0.8929,0,0,0,0,0,0,0,0,0,0,0,0,0,0.8917,0.8917,0.8926,0.8926,0.8926,0.8929,0.8929,0.8929,0.8928,0.8928,0.8928,0.8928,0.8928,0.8928,0.8929,0,0,0,0,0,0,0,0,0,0,0,0,0,0.892,0.8917,0.8926,0.8926,0.8926,0.8929,0.8929,0.8929,0.8928,0.8928,0.8928,0.8928,0.8928,0.8928,0.8929,0.8931,0,0,0.8929,0.8929,0,0,0,0,0,0,0,0,0.892,0.8921,0.8926,0.8926,0.8926,0.8928,0.8926,0.893,0.8928,0.8927,0.8928,0.8928,0.8928,0.8928,0.8929,0.8931,0.8931,0.8929,0.8929,0.8929,0.8929,0,0,0,0,0,0,0,0.892,0.892,0.8927,0.8926,0.8926,0.8925,0.8925,0.8926,0.8928,0.8928,0.8928,0.8928,0.8928,0.8929,0.8929,0.8931,0.8929,0.8929,0.8929,0.8929,0.8931,0.8931,0,0,0,0,0,0,0.892,0.892,0.8927,0.8927,0.8923,0.8925,0.8926,0.8928,0.8928,0.8928,0.8928,0.8928,0.8929,0.8929,0.8929,0.893,0.8929,0.8929,0.8929,0.8931,0.8931,0.8931,0,0,0,0,0,0,0.892,0.8921,0.8927,0.8924,0.8925,0.8925,0.8928,0.8928,0.8928,0.8929,0.8929,0.8929,0.8929,0.8929,0.893,0.893,0.8929,0.8929,0.8931,0.8931,0.8931,0.8932,0,0,0,0,0,0,0.8919,0.8921,0.8922,0.8924,0.8925,0.8929,0.8928,0.8928,0.8929,0.8929,0.8929,0.8929,0.8929,0.893,0.893,0.893,0.8929,0.8931,0.8931,0.8931,0.8932,0.8932,0.8932,0,0,0,0,0,0.8919,0.8923,0.8923,0.8923,0.8927,0.8929,0.893,0.893,0.8929,0.893,0.893,0.8929,0.893,0.893,0.893,0.893,0.8931,0.8931,0.8931,0.8932,0.8932,0.8932,0,0,0,0,0,0,0.8921,0.8923,0.8923,0.8927,0.8928,0.8929,0.8931,0.893,0.8931,0.8931,0.893,0.893,0.893,0.893,0.893,0.893,0.893,0.893,0.8931,0.8931,0.8931,0.8931,0.8929,0,0,0,0,0,0.8922,0.8925,0.8926,0.8929,0.893,0.893,0.8931,0.8931,0.8931,0.8932,0.8931,0.8931,0.8931,0.8931,0.8931,0.8932,0.8931,0.8932,0.8932,0.8932,0.8932,0.893,0.893,0.8931,0.8931,0.8931,0,0,0.8924,0.8926,0.8927,0.893,0.893,0.8931,0.8931,0.8932,0.8932,0.8932,0.8932,0.8932,0.8931,0.8931,0.8932,0.8931,0.8931,0.8932,0.8932,0.8932,0.893,0.893,0.893,0.8931,0.8931,0.8931,0,0,0.8928,0.893,0.8933,0.8933,0.8934,0.8934,0.8934,0.8935,0.8934,0.8935,0.8934,0.8933,0.8934,0.8933,0.8932,0.8933,0.8932,0.8933,0.8933,0.8931,0.8931,0.8931,0.893,0.893,0.8933,0.8933,0.8933,0,0.8931,0.8934,0.8934,0.8935,0.8935,0.8934,0.8936,0.8936,0.8936,0.8936,0.8935,0.8934,0.8934,0.8933,0.8933,0.8933,0.8932,0.8933,0.8932,0.8931,0.8931,0.893,0.893,0.8933,0.8933,0.8933,0.8933,0,0.8935,0.8937,0.8938,0.8939,0.8939,0.894,0.8939,0.8939,0.8938,0.8938,0.8937,0.8936,0.8935,0.8935,0.8934,0.8933,0.8932,0.8932,0.8931,0.8931,0.893,0.893,0.8933,0.8933,0.8933,0.8933,0,0,0.8942,0.8941,0.8942,0.8941,0.8941,0.8941,0.8941,0.894,0.894,0.8939,0.8938,0.8937,0.8936,0.8935,0.8934,0.8933,0.8931,0.8932,0.8932,0.8931,0.8928,0.8927,0.8927,0.893,0.893,0.893,0.8927,0,0.8945,0.8947,0.8946,0.8946,0.8946,0.8944,0.8944,0.8943,0.8941,0.894,0.8938,0.8937,0.8937,0.8936,0.8934,0.8932,0.893,0.8932,0.8928,0.8928,0.8928,0.8927,0.8927,0.8924,0.8927,0.8927,0.8927,0,0.895,0.8949,0.895,0.8947,0.8947,0.8947,0.8945,0.8945,0.8942,0.8941,0.8939,0.8938,0.8936,0.8935,0.8931,0.8932,0.893,0.8928,0.8928,0.8927,0.8927,0.8925,0.8924,0.8923,0.8926,0.8926,0.8926,0,0.8953,0.8952,0.8952,0.8952,0.8949,0.8949,0.8947,0.8945,0.8944,0.8941,0.894,0.8938,0.8936,0.8933,0.893,0.893,0.8925,0.8925,0.8923,0.8923,0.8922,0.8922,0.892,0.8922,0.8922,0.8922,0.8922,0,0.8956,0.8956,0.8953,0.8953,0.8952,0.895,0.8949,0.8947,0.8945,0.8943,0.8941,0.8939,0.8935,0.8932,0.893,0.8925,0.8925,0.8923,0.8922,0.8923,0.8923,0.8921,0.8921,0.8922,0.8922,0.8922,0.8922,0,0.896,0.8958,0.8957,0.8954,0.8953,0.8953,0.895,0.8948,0.8946,0.8944,0.8943,0.8939,0.8935,0.8932,0.8927,0.8925,0.892,0.892,0.8921,0.8921,0.8918,0.8918,0.8914,0.8913,0.8917,0.8917,0.8917,0,0.8962,0.8962,0.8958,0.8957,0.8956,0.8954,0.8952,0.895,0.8948,0.8944,0.8942,0.8938,0.8935,0.8929,0.8925,0.892,0.8919,0.8917,0.8918,0.8918,0.8917,0.8917,0.8916,0.8917,0.8917,0.8917,0.8917,0,0.8965,0.8963,0.8962,0.8959,0.8957,0.8955,0.8952,0.8951,0.8947,0.8945,0.8941,0.8938,0.8933,0.8928,0.8922,0.892,0.8917,0.8917,0.8916,0.8917,0.8917,0.8915,0.892,0.8917,0.8917,0.8917,0.8917,0.8917,0.8967,0.8966,0.8963,0.896,0.8958,0.8955,0.8953,0.895,0.8947,0.8942,0.8941,0.8936,0.8931,0.8924,0.892,0.8916,0.8915,0.8915,0.8914,0.8914,0.8913,0.8918,0.8915,0.8915,0.8915,0.8915,0.8915,0,0.8969,0.8966,0.8964,0.896,0.8957,0.8956,0.8952,0.895,0.8946,0.8942,0.8938,0.8932,0.8927,0.8922,0.8917,0.8914,0.8912,0.8912,0.8912,0.8911,0.8914,0.8915,0.8913,0.8913,0.8913,0.8913,0.8913,0.8913,0.8969,0.8967,0.8965,0.896,0.8957,0.8953,0.8951,0.8948,0.8944,0.8938,0.8934,0.8931,0.8925,0.8919,0.8913,0.8912,0.8909,0.8909,0.8907,0.8911,0.8911,0.8911,0.8912,0.8909,0.8909,0.8904,0.8904,0.8904]}]]